Location: Namasale
(1.5000°N, 32.6167°E)
Time: 09:32:04
(UTC+00:00)

Vanguard 1 Rocket - Pass Details

Date: 24 April 2021
Orbit: 652 x 4225 km, 34.3° (Epoch: 15 May)

Event Time Altitude Azimuth Distance (km) Brightness Sun altitude
Rises 17:41:11 0° 307° (NW) 3,473 11.5 -27.2°
Reaches altitude 10° 17:43:11 10° 308° (NW) 2,745 10.7 -27.7°
Maximum altitude 17:49:46 88° 37° (NE) 1,444 8.2 -29.3°
Enters shadow 17:52:26 55° 124° (SE) 1,929 8.6 -29.9°
Drops below altitude 10° 18:02:55 10° 126° (SE) 5,191 - -32.4°
Sets 18:08:14 0° 126° (SE) 6,787 - -33.7°
